Regional Weather Roundup
Issued by NWS

Home | Current Version | Previous Version | Text Only | Print | Product List | Glossary On
Versions: 1 2 3 4 5 6 7 8 9 10 11 12 13 14 15 16 17 18 19 20 21 22 23 24 25 26 27 28 29 30 31 32 33 34 35 36 37 38 39 40 41 42 43 44 45 46 47 48 49 50
000
ASUS44 KFWD 030901
RWRTX
NORTH TEXAS HOURLY WEATHER ROUNDUP
NATIONAL WEATHER SERVICE FORT WORTH TX
300 AM CST TUE MAR 03 2015

NOTE: "FAIR" INDICATES FEW OR NO CLOUDS BELOW 12,000 FEET WITH NO
SIGNIFICANT WEATHER AND/OR OBSTRUCTIONS TO VISIBILITY.

TXZ118-119-031000-
DALLAS/FORT WORTH METROPLEX

CITY           SKY/WX    TMP DP  RH WIND       PRES   REMARKS
DFW AIRPORT    DRZL/FOG  40  40 100 W5        30.08F VSB<1/4 WCI  37
DALLAS LOVE    LGT RAIN  42  40  92 SW3       30.08F VSB 1/4
FTW MEACHAM    FOG       40  39  97 S5        30.07F VSB 3/4 WCI  37
DAL-EXECUTIVE  FOG       41  41 100 W3        30.07F VSB 1/4
FTW-ALLIANCE   DRZL/FOG  38  38 100 S5        30.06F VSB 1/4 WCI  34
ARLINGTON      CLOUDY    41  38  89 CALM      30.08F FOG
GRAND PRAIRIE  CLOUDY    40  40 100 SW3       30.10F
ADDISON        CLOUDY    42  42 100 CALM      30.09F FOG
MESQUITE       CLOUDY    42  41  98 CALM      30.09S VSB 1/4
LANCASTER      FOG       41  40  95 CALM      30.09F VSB 1/4
$$

TXZ091>094-102>105-117-120-121-131>134-031000-
NORTH CENTRAL TEXAS

CITY           SKY/WX    TMP DP  RH WIND       PRES   REMARKS
SHRMAN/DENISON CLOUDY    42  42 100 SE8       30.05F FOG     WCI  36
BOWIE          FOG       37  37 100 S6        30.03F VSB 3/4 WCI  32
BRIDGEPORT     CLOUDY    39  39 100 CALM      30.07F FOG
DECATUR        FOG       37  37 100 S5        30.05F VSB 1/2 WCI  34
DENTON         LGT RAIN  39  39 100 S7        30.06F VSB 1/4 WCI  34
MCKINNEY       FOG       41  41 100 S5        30.08F VSB 1   WCI  38
TERRELL        FOG       43  42  97 CALM      30.08F VSB 1/2
WAXAHACHIE     FOG       40  40 100 W3        30.09F VSB 1/2
GRANBURY       LGT RAIN  40  38  95 CALM      30.08F
$$

TXZ083>090-098>101-113>116-127>130-139>142-154-155-031000-
WESTERN NORTH TEXAS

CITY           SKY/WX    TMP DP  RH WIND       PRES   REMARKS
WICHITA FALLS  DRIZZLE   38  34  85 S13       30.01F WCI  30
WF-KICKAPOO    CLOUDY    39  37  90 S12       30.03F WCI  32
VERNON         CLOUDY    38  32  77 S10       29.99F WCI  32
ABILENE        CLOUDY    38  37  97 S10       30.01F FOG     WCI  31
GRAHAM         CLOUDY    36  36 100 S5        30.03F FOG     WCI  32
MINERAL WELLS  CLOUDY    37  36  96 SE5       30.04F FOG     WCI  33
STEPHENVILLE   CLOUDY    38  37  94 S5        30.07F WCI  35
COMANCHE       DRIZZLE   38  38 100 S5        30.05F WCI  35
$$

TXZ143>147-156>162-174-175-031000-
CENTRAL TEXAS

CITY           SKY/WX    TMP DP  RH WIND       PRES   REMARKS
WACO           FOG       40  39  97 NW3       30.08F VSB 1
WACO-MCGREGOR    N/A     39  36  87 NW3       30.09S VSB 3/4
CORSICANA      FOG       45  43  93 S3        30.08F VSB 1/4
MEXIA          FOG       42  42  99 CALM      30.05F VSB 3/4
HEARNE         FOG       43  43  99 CALM      30.08F VSB 3/4
TEMPLE         CLOUDY    39  36  87 CALM      30.06F VSB 1/2
KILLEEN        NOT AVBL
KILLEEN-SKYLRK CLOUDY    41  36  81 CALM      30.03F VSB 1/2
FORT HOOD      FOG       40  40 100 W2        30.05F VSB 3/4
HAMILTON       FOG       39  39 100 W3        30.07F VSB 1/2
LAMPASAS       FOG       40  40  98 CALM      30.05F VSB 1/2
$$

TXZ095>097-106>112-122>126-135>138-148>153-164>167-031000-
EAST TEXAS

CITY           SKY/WX    TMP DP  RH WIND       PRES   REMARKS
PARIS          CLOUDY    37  36  93 SE6       30.10S VSB 1   WCI  33
SULPHUR SPRNGS FOG       41  41 100 CALM      30.11F VSB 3/4
GILMER         FOG       41  41 100 SE6       30.08F VSB 1/2 WCI  37
MINEOLA        FOG       43  43 100 CALM      30.09F VSB 1/2
TYLER          CLOUDY    44  43  96 S6        30.07F FOG
LONGVIEW       CLOUDY    43  41  93 SE7       30.09F FOG     WCI  39
MARSHALL       CLOUDY    42  40  93 CALM      30.12F
ATHENS         FOG       43  43 100 E3        30.06F VSB 1/2
PALESTINE      FOG       46  46 100 E3        30.08F VSB 1/2
JACKSONVILLE   FOG       46  46 100 SE3       30.09F VSB 1/2
NACOGDOCHES    CLOUDY    45  43  93 SE3       30.11F
LUFKIN         FOG       49  46  90 E5        30.09F VSB 3/4
$$

SUPPLEMENTAL OBSERVATIONS (CENTRAL)

CITY           SKY/WX    TMP DP  RH WIND       PRES   REMARKS
$$

SUPPLEMENTAL OBSERVATIONS (WEST)

CITY           SKY/WX    TMP DP  RH WIND       PRES   REMARKS
$$

SUPPLEMENTAL OBSERVATIONS (EAST)

CITY           SKY/WX    TMP DP  RH WIND       PRES   REMARKS
$$

SUPPLEMENTAL OBSERVATIONS ARE A COLLECTION OF AUTOMATED INSTRUMENTS
THAT ARE MAINTAINED BY A VARIETY OF FEDERAL AND STATE AGENCIES.
CERTAIN ELEMENTS...SUCH AS HUMIDITY VALUES AND SUSTAINED WIND
SPEEDS...MAY BE APPROXIMATED.




USA.gov is the U.S. government's official web portal to all federal, state and local government web resources and services.